• Em Portugal
  • Lista de países
  • Para 7 dias
  • Temperatura da água
  • Mapas de satélite
  • Mapa do tempo
  • Widgets de tempo
  • user-avatar
    Iniciar Sessão

    Previsão horária em Tarin Kout

    Hoje, 20 Janeiro, Sábado

    Tempo Temperatura Precipitação Vento Pressão Humidade
    00:00 +4°C° 0 mm 1 m/s 617 mmHg 20%
    01:00 +3°C° 0 mm 2 m/s 617 mmHg 21%
    02:00 +3°C° 0 mm 2 m/s 617 mmHg 21%
    03:00 +3°C° 0 mm 2 m/s 617 mmHg 21%
    04:00 +2°C° 0 mm 2 m/s 616 mmHg 20%
    05:00 +2°C° 0 mm 2 m/s 616 mmHg 21%
    06:00 +2°C° 0 mm 2 m/s 616 mmHg 21%
    07:00 +2°C° 0 mm 2 m/s 616 mmHg 21%
    08:00 +4°C° 0 mm 2 m/s 617 mmHg 18%
    09:00 +7°C° 0 mm 2 m/s 618 mmHg 14%
    10:00 +11°C° 0 mm 1 m/s 619 mmHg 11%
    11:00 +12°C° 0 mm 1 m/s 619 mmHg 10%
    12:00 +13°C° 0 mm 1 m/s 618 mmHg 9%
    13:00 +14°C° 0 mm 1 m/s 618 mmHg 8%
    14:00 +14°C° 0 mm 1 m/s 618 mmHg 9%
    15:00 +13°C° 0 mm 1 m/s 618 mmHg 10%
    16:00 +13°C° 0 mm 1 m/s 617 mmHg 11%
    17:00 +10°C° 0 mm 0 m/s 617 mmHg 12%
    18:00 +8°C° 0 mm 0 m/s 616 mmHg 14%
    19:00 +6°C° 0 mm 0 m/s 615 mmHg 16%
    20:00 +5°C° 0 mm 0 m/s 615 mmHg 16%
    21:00 +6°C° 0 mm 1 m/s 615 mmHg 16%
    22:00 +6°C° 0 mm 1 m/s 615 mmHg 16%
    23:00 +5°C° 0 mm 1 m/s 614 mmHg 16%

    Amanhã, 21 Janeiro, Domingo

    Tempo Temperatura Precipitação Vento Pressão Humidade
    00:00 +5°C° 0 mm 1 m/s 614 mmHg 16%
    01:00 +5°C° 0 mm 1 m/s 614 mmHg 16%
    02:00 +5°C° 0 mm 1 m/s 614 mmHg 16%
    03:00 +3°C° 0 mm 2 m/s 613 mmHg 16%
    04:00 +3°C° 0 mm 2 m/s 613 mmHg 16%
    05:00 +3°C° 0 mm 2 m/s 613 mmHg 16%
    06:00 +3°C° 0 mm 2 m/s 613 mmHg 16%
    07:00 +3°C° 0 mm 2 m/s 613 mmHg 16%
    08:00 +5°C° 0 mm 2 m/s 614 mmHg 15%
    09:00 +8°C° 0 mm 2 m/s 615 mmHg 13%
    10:00 +10°C° 0 mm 2 m/s 617 mmHg 11%
    11:00 +12°C° 0 mm 2 m/s 616 mmHg 12%
    12:00 +13°C° 0 mm 2 m/s 616 mmHg 12%
    13:00 +14°C° 0 mm 2 m/s 615 mmHg 12%
    14:00 +13°C° 0 mm 3 m/s 615 mmHg 13%
    15:00 +13°C° 0 mm 3 m/s 615 mmHg 13%
    16:00 +13°C° 0 mm 3 m/s 614 mmHg 14%
    17:00 +12°C° 0 mm 2 m/s 614 mmHg 15%
    18:00 +9°C° 0 mm 2 m/s 613 mmHg 17%
    19:00 +7°C° 0 mm 2 m/s 613 mmHg 18%
    20:00 +7°C° 0 mm 2 m/s 613 mmHg 18%
    21:00 +7°C° 0 mm 2 m/s 613 mmHg 17%
    22:00 +7°C° 0 mm 3 m/s 612 mmHg 16%
    23:00 +5°C° 0 mm 3 m/s 612 mmHg 16%

    Depois de amanhã, 22 Janeiro, Segunda-feira

    Tempo Temperatura Precipitação Vento Pressão Humidade
    00:00 +5°C° 0 mm 3 m/s 612 mmHg 16%
    01:00 +5°C° 0 mm 3 m/s 612 mmHg 16%
    02:00 +4°C° 0 mm 3 m/s 612 mmHg 20%
    03:00 +3°C° 0 mm 3 m/s 611 mmHg 24%
    04:00 +4°C° 0 mm 2 m/s 611 mmHg 27%
    05:00 +3°C° 0,3 mm 2 m/s 612 mmHg 34%
    06:00 +4°C° 0,3 mm 1 m/s 612 mmHg 41%
    07:00 +4°C° 0,3 mm 1 m/s 612 mmHg 47%
    08:00 +4°C° 0,5 mm 1 m/s 613 mmHg 52%
    09:00 +4°C° 0,5 mm 1 m/s 613 mmHg 56%
    10:00 +4°C° 0,5 mm 2 m/s 613 mmHg 61%
    11:00 +4°C° 0,4 mm 2 m/s 613 mmHg 63%
    12:00 +4°C° 0,4 mm 2 m/s 613 mmHg 65%
    13:00 +4°C° 0,4 mm 2 m/s 613 mmHg 66%
    14:00 +4°C° 0,2 mm 2 m/s 613 mmHg 67%
    15:00 +4°C° 0,2 mm 2 m/s 612 mmHg 68%
    16:00 +4°C° 0,2 mm 2 m/s 612 mmHg 69%
    17:00 +3°C° 0 mm 2 m/s 613 mmHg 70%
    18:00 +3°C° 0 mm 1 m/s 613 mmHg 72%
    19:00 +3°C° 0 mm 1 m/s 613 mmHg 74%
    20:00 +2°C° 0 mm 1 m/s 613 mmHg 75%
    21:00 +2°C° 0 mm 1 m/s 613 mmHg 75%
    22:00 +1°C° 0 mm 1 m/s 613 mmHg 76%
    23:00 +1°C° 0 mm 1 m/s 613 mmHg 75%

    23 Janeiro, Terça-feira

    Tempo Temperatura Precipitação Vento Pressão Humidade
    00:00 +1°C° 0 mm 1 m/s 613 mmHg 74%
    01:00 +1°C° 0 mm 1 m/s 612 mmHg 74%
    02:00 +1°C° 0 mm 1 m/s 612 mmHg 71%
    03:00 0°C° 0 mm 1 m/s 612 mmHg 69%
    04:00 0°C° 0 mm 1 m/s 612 mmHg 66%
    05:00 0°C° 0 mm 1 m/s 613 mmHg 64%
    06:00 0°C° 0 mm 1 m/s 613 mmHg 62%
    07:00 0°C° 0 mm 1 m/s 613 mmHg 60%
    08:00 +2°C° 0 mm 1 m/s 614 mmHg 54%
    09:00 +4°C° 0 mm 1 m/s 615 mmHg 49%
    10:00 +5°C° 0 mm 0 m/s 616 mmHg 44%
    11:00 +6°C° 0 mm 0 m/s 616 mmHg 40%
    12:00 +8°C° 0 mm 1 m/s 615 mmHg 37%
    13:00 +8°C° 0 mm 1 m/s 615 mmHg 33%
    14:00 +8°C° 0 mm 1 m/s 615 mmHg 34%
    15:00 +9°C° 0 mm 1 m/s 615 mmHg 34%
    16:00 +9°C° 0 mm 1 m/s 615 mmHg 34%
    17:00 +7°C° 0 mm 1 m/s 614 mmHg 38%
    18:00 +6°C° 0 mm 1 m/s 614 mmHg 41%
    19:00 +4°C° 0 mm 0 m/s 614 mmHg 45%
    20:00 +4°C° 0 mm 0 m/s 614 mmHg 46%
    21:00 +3°C° 0 mm 0 m/s 614 mmHg 47%
    22:00 +3°C° 0 mm 0 m/s 614 mmHg 48%
    23:00 +3°C° 0 mm 0 m/s 614 mmHg 49%

    24 Janeiro, Quarta-feira

    Tempo Temperatura Precipitação Vento Pressão Humidade
    00:00 +2°C° 0 mm 0 m/s 613 mmHg 49%
    01:00 +2°C° 0 mm 0 m/s 613 mmHg 50%
    02:00 +2°C° 0 mm 0 m/s 613 mmHg 50%
    03:00 +2°C° 0 mm 1 m/s 612 mmHg 49%
    04:00 +2°C° 0 mm 1 m/s 612 mmHg 49%
    05:00 +2°C° 0 mm 1 m/s 612 mmHg 48%
    06:00 +2°C° 0 mm 1 m/s 613 mmHg 47%
    07:00 +2°C° 0 mm 1 m/s 613 mmHg 47%
    08:00 +3°C° 0 mm 0 m/s 614 mmHg 41%
    09:00 +5°C° 0 mm 0 m/s 615 mmHg 35%
    10:00 +7°C° 0 mm 0 m/s 616 mmHg 29%
    11:00 +9°C° 0 mm 1 m/s 615 mmHg 27%
    12:00 +10°C° 0 mm 1 m/s 615 mmHg 26%
    13:00 +11°C° 0 mm 1 m/s 615 mmHg 24%
    14:00 +11°C° 0 mm 1 m/s 615 mmHg 25%
    15:00 +11°C° 0 mm 1 m/s 615 mmHg 25%
    16:00 +11°C° 0 mm 1 m/s 615 mmHg 26%
    17:00 +9°C° 0 mm 1 m/s 614 mmHg 29%
    18:00 +8°C° 0 mm 1 m/s 614 mmHg 32%
    19:00 +5°C° 0 mm 0 m/s 614 mmHg 35%
    20:00 +5°C° 0 mm 0 m/s 614 mmHg 35%
    21:00 +4°C° 0 mm 0 m/s 614 mmHg 36%
    22:00 +4°C° 0 mm 0 m/s 614 mmHg 36%
    23:00 +5°C° 0 mm 1 m/s 614 mmHg 35%

    25 Janeiro, Quinta-feira

    Tempo Temperatura Precipitação Vento Pressão Humidade
    00:00 +4°C° 0 mm 1 m/s 613 mmHg 35%
    01:00 +4°C° 0 mm 1 m/s 613 mmHg 35%
    02:00 +4°C° 0 mm 1 m/s 613 mmHg 34%
    03:00 +4°C° 0 mm 1 m/s 613 mmHg 34%
    04:00 +4°C° 0 mm 1 m/s 613 mmHg 33%
    05:00 +4°C° 0 mm 1 m/s 613 mmHg 34%
    06:00 +4°C° 0 mm 1 m/s 613 mmHg 34%
    07:00 +3°C° 0 mm 1 m/s 614 mmHg 35%
    08:00 +6°C° 0 mm 1 m/s 615 mmHg 31%
    09:00 +8°C° 0 mm 1 m/s 616 mmHg 27%
    10:00 +10°C° 0 mm 1 m/s 617 mmHg 24%
    11:00 +11°C° 0 mm 1 m/s 617 mmHg 22%
    12:00 +12°C° 0 mm 1 m/s 617 mmHg 21%
    13:00 +13°C° 0 mm 1 m/s 616 mmHg 19%
    14:00 +13°C° 0 mm 1 m/s 616 mmHg 20%
    15:00 +13°C° 0 mm 1 m/s 616 mmHg 20%
    16:00 +13°C° 0 mm 1 m/s 616 mmHg 20%
    17:00 +11°C° 0 mm 1 m/s 615 mmHg 23%
    18:00 +9°C° 0 mm 1 m/s 615 mmHg 27%
    19:00 +8°C° 0 mm 1 m/s 615 mmHg 30%
    20:00 +7°C° 0 mm 1 m/s 615 mmHg 31%
    21:00 +7°C° 0 mm 1 m/s 615 mmHg 32%
    22:00 +6°C° 0 mm 1 m/s 615 mmHg 33%
    23:00 +6°C° 0 mm 1 m/s 614 mmHg 33%
    Mostrar mais